User: anonymous   Login
Location: Unspecified
(57.6483°N, 3.3184°W)
Time: 17:40:51
(UTC+01:00)
Language:

N. Korean satellite - Orbit

View from above orbital plane
View from above orbital plane
View from above satellite
View from above satellite

Ground track
Ground track

The orbit data is extracted from the following two-line orbital elements,

1 39026U 12072A   21110.93456381  .00003077  00000-0  10689-3 0  9990
2 39026  97.2434 105.2167 0034436 227.3548 132.4789 15.29953823464234
Epoch (UTC): 20 April 2021 22:25:46
Eccentricity: 0.0034436
inclination: 97.2434°
perigee height: 452 km
apogee height: 499 km
right ascension of ascending node: 105.2167°
argument of perigee: 227.3548°
revolutions per day: 15.29953823
mean anomaly at epoch: 132.4789°
orbit number at epoch: 46423

The dashed part of the orbit path shows where the satellite is in the earth's shadow,  

DLR